Location: Herm
(49.4830°N, 2.4500°W)
Time: 21:30:57
(UTC+00:00)

NOAA 15 - Pass Details

Date: 30 October 2021
Orbit: 797 x 812 km, 98.7° (Epoch: 27 November)

Event Time Altitude Azimuth Distance (km) Brightness Sun altitude
Rises 21:34:12 0° 218° (SW) 3,323 8.0 -36.3°
Reaches altitude 10° 21:37:50 10° 244° (WSW) 2,400 7.4 -36.8°
Maximum altitude 21:40:25 14° 274° (W) 2,156 7.4 -37.2°
Drops below altitude 10° 21:43:02 10° 304° (WNW) 2,410 7.8 -37.6°
Sets 21:46:43 0° 330° (NNW) 3,348 8.5 -38.1°
